1398643228147,0.905052
1398643288147,0.896905
1398643348147,0.898888
1398643408147,0.900907
1398643468147,0.905111
1398643528147,0.901480
1398643588147,0.893449
1398643648147,0.899432
1398643708147,0.898387
1398643768147,0.897360
1398643828147,0.899882
1398643888147,0.897855
1398643948147,0.903115
1398644008147,0.900494
1398644068147,0.893527
1398644128147,0.905017
1398644188147,0.898341
1398644248147,0.890525
1398644308147,0.903256
1398644368147,0.904554
1398644428147,0.897353
1398644488147,0.901219
1398644548147,0.899588
1398644608147,0.900940
1398644668147,0.894614
1398644728147,0.895730
1398644788147,0.895298
1398644848147,0.900937
1398644908147,0.894422
1398644968147,0.906365
1398645028147,0.911736
1398645088147,0.904421
1398645148147,0.905955
1398645208147,0.903559
1398645268147,0.907356
1398645328147,0.905008
1398645388147,0.896594
1398645448147,0.904362
1398645508147,0.901606
1398645568147,0.910497
1398645628147,0.905632
1398645688147,0.909340
1398645748147,0.912259
1398645808147,0.908424
1398645868147,0.900453
1398645928147,0.901460
1398645988147,0.905186
1398646048147,0.904560
1398646108147,0.910440
1398646168147,0.906102
1398646228147,0.898327
1398646288147,0.901865
1398646348147,0.895228
1398646408147,0.903467
1398646468147,0.898729
1398646528147,0.902778
1398646588147,0.894815
1398646648147,0.898099
1398646708147,0.901102
1398646768147,0.893336
1398646828158,0.895862
1398646888158,0.897228
1398646948158,0.900308
1398647008158,0.901660
1398647068158,0.892278
1398647128158,0.902874
1398647188158,0.899637
1398647248158,0.901350
1398647308158,0.896900
1398647368158,0.894924
1398647428158,0.900913
1398647488158,0.897289
1398647548158,0.906237
1398647608158,0.893925
1398647668158,0.895210
1398647728158,0.902655
1398647788158,0.894173
1398647848158,0.890797
1398647908158,0.897112
1398647968158,0.897762
1398648028158,0.903848
1398648088158,0.893536
1398648148158,0.904258
1398648208158,0.897775
1398648268158,0.899096
1398648328158,0.896636
1398648388158,0.899702
1398648448158,0.907400
1398648508158,0.905820
1398648568158,0.904049
1398648628158,0.902362
1398648688158,0.901048
1398648748158,0.901807
1398648808158,0.905257
1398648868158,0.905160
1398648928158,0.905041
1398648988158,0.905841
1398649048158,0.915828
1398649108158,0.905058
1398649168158,0.903864
1398649228158,0.894353
1398649288158,0.908876
1398649348158,0.901137
1398649408158,0.900797
1398649468158,0.901190
1398649528158,0.900973
1398649588158,0.896780
1398649648158,0.900557
1398649708158,0.897509
1398649768158,0.889532
1398649828158,0.887302
1398649888158,0.901749
1398649948158,0.897534
1398650008158,0.903656
1398650068158,0.889875
1398650128158,0.895380
1398650188158,0.894238
1398650248158,0.899087
1398650308158,0.900723
1398650368158,0.897830
1398650428168,0.895321
1398650488168,0.890852
1398650548168,0.893739
1398650608168,0.889614
1398650668168,0.891879
1398650728168,0.903562
1398650788168,0.895393
1398650848168,0.895277
1398650908168,0.897294
1398650968168,0.887004
1398651028168,0.899815
1398651088168,0.896974
1398651148168,0.888321
1398651208168,0.890832
1398651268168,0.894682
1398651328168,0.895362
1398651388168,0.892459
1398651448168,0.905914
1398651508168,0.891264
1398651568168,0.896362
1398651628168,0.899760
1398651688168,0.891846
1398651748168,0.898851
1398651808168,0.896185
1398651868168,0.900050
1398651928168,0.893785
1398651988168,0.896268
1398652048168,0.891389
1398652108168,0.893341
1398652168168,0.897971
1398652228168,0.890726
1398652288168,0.901022
1398652348168,0.892674
1398652408168,0.898003
1398652468168,0.892285
1398652528168,0.893644
1398652588168,0.890083
1398652648168,0.895481
1398652708168,0.894273
1398652768168,0.903851
1398652828168,0.894658
1398652888168,0.893719
1398652948168,0.896267
1398653008168,0.892067
1398653068168,0.894125
1398653128168,0.890490
1398653188168,0.900681
1398653248168,0.900305
1398653308168,0.891973
1398653368168,0.886593
1398653428168,0.894956
1398653488168,0.896552
1398653548168,0.891989
1398653608168,0.895675
1398653668168,0.896775
1398653728168,0.888746
1398653788168,0.889169
1398653848168,0.886318
1398653908168,0.897293
1398653968168,0.889758
1398654028179,0.885789
1398654088179,0.894700
1398654148179,0.895284
1398654208179,0.900556
1398654268179,0.897373
1398654328179,0.896363
1398654388179,0.903918
1398654448179,0.906266
1398654508179,0.894789
1398654568179,0.905116
1398654628179,0.904275
1398654688179,0.897501
1398654748179,0.894270
1398654808179,0.892333
1398654868179,0.895128
1398654928179,0.892935
1398654988179,0.905171
1398655048179,0.897496
1398655108179,0.897980
1398655168179,0.906835
1398655228179,0.900348
1398655288179,0.902534
1398655348179,0.908052
1398655408179,0.896426
1398655468179,0.901846
1398655528179,0.901192
1398655588179,0.910057
1398655648179,0.899134
1398655708179,0.896223
1398655768179,0.903727
1398655828179,0.902466
1398655888179,0.903493
1398655948179,0.902959
1398656008179,0.911158
1398656068179,0.904156
1398656128179,0.906768
1398656188179,0.912125
1398656248179,0.909585
1398656308179,0.907051
1398656368179,0.909922
1398656428179,0.914400
1398656488179,0.901168
1398656548179,0.905781
1398656608179,0.896360
1398656668179,0.908938
1398656728179,0.908475
1398656788179,0.907630
1398656848179,0.904619
1398656908179,0.907341
1398656968179,0.904700
1398657028179,0.904456
1398657088179,0.898813
1398657148179,0.906422
1398657208179,0.899342
1398657268179,0.902961
1398657328179,0.897402
1398657388179,0.909846
1398657448179,0.901982
1398657508179,0.894997
1398657568179,0.902174
1398657628189,0.899009
1398657688189,0.896184
1398657748189,0.892784
1398657808189,0.900981
1398657868189,0.891067
1398657928189,0.901733
1398657988189,0.903579
1398658048189,0.908989
1398658108189,0.906582
1398658168189,0.904321
1398658228189,0.911317
1398658288189,0.915193
1398658348189,0.923381
1398658408189,0.919334
1398658468189,0.931516
1398658528189,0.922317
1398658588189,0.920967
1398658648189,0.918935
1398658708189,0.922989
1398658768189,0.920831
1398658828189,0.917287
1398658888189,0.924638
1398658948189,0.921460
1398659008189,0.916255
1398659068189,0.915552
1398659128189,0.912441
1398659188189,0.912492
1398659248189,0.905094
1398659308189,0.904933
1398659368189,0.897119
1398659428189,0.895247
1398659488189,0.899062
1398659548189,0.895411
1398659608189,0.900601
1398659668189,0.901429
1398659728189,0.902994
1398659788189,0.905227
1398659848189,0.893103
1398659908189,0.904107
1398659968189,0.898373
1398660028189,0.894907
1398660088189,0.891354
1398660148189,0.891698
1398660208189,0.892921
1398660268189,0.893470
1398660328189,0.895293
1398660388189,0.892128
1398660448189,0.890730
1398660508189,0.891100
1398660568189,0.895495
1398660628189,0.902589
1398660688189,0.886430
1398660748189,0.885227
1398660808189,0.895340
1398660868189,0.891558
1398660928189,0.879690
1398660988189,0.897773
1398661048189,0.897373
1398661108189,0.885996
1398661168189,0.886432
1398661228199,0.893662
1398661288199,0.892506
1398661348199,0.888687
1398661408199,0.896336
1398661468199,0.888036
1398661528199,0.888314
1398661588199,0.888620
1398661648199,0.890064
1398661708199,0.878002
1398661768199,0.894253
1398661828199,0.884717
1398661888199,0.888769
1398661948199,0.880073
1398662008199,0.887545
1398662068199,0.890425
1398662128199,0.882917
1398662188199,0.889337
1398662248199,0.892741
1398662308199,0.886978
1398662368199,0.891563
1398662428199,0.888289
1398662488199,0.881233
1398662548199,0.884585
1398662608199,0.883490
1398662668199,0.883082
1398662728199,0.888050
1398662788199,0.883463
1398662848199,0.895005
1398662908199,0.884316
1398662968199,0.894167
1398663028199,0.890054
1398663088199,0.888492
1398663148199,0.892832
1398663208199,0.881402
1398663268199,0.887453
1398663328199,0.892078
1398663388199,0.886490
1398663448199,0.886964
1398663508199,0.895070
1398663568199,0.885303
1398663628199,0.879982
1398663688199,0.887171
1398663748199,0.894385
1398663808199,0.880179
1398663868199,0.884731
1398663928199,0.880076
1398663988199,0.883217
1398664048199,0.888800
1398664108199,0.880757
1398664168199,0.886726
1398664228199,0.886363
1398664288199,0.893114
1398664348199,0.884769
1398664408199,0.890196
1398664468199,0.885495
1398664528199,0.889041
1398664588199,0.875539
1398664648199,0.884512
1398664708199,0.878906
1398664768199,0.887739
1398664828209,0.882684
1398664888209,0.889991
1398664948209,0.882819
1398665008209,0.879439
1398665068209,0.886225
1398665128209,0.879623
1398665188209,0.885979
1398665248209,0.880830
1398665308209,0.879210
1398665368209,0.881224
1398665428209,0.882544
1398665488209,0.876590
1398665548209,0.891284
1398665608209,0.885963
1398665668209,0.883844
1398665728209,0.882582
1398665788209,0.884302
1398665848209,0.888331
1398665908209,0.885333
1398665968209,0.884115
1398666028209,0.884807
1398666088209,0.883041
1398666148209,0.887019
1398666208209,0.894511
1398666268209,0.886442
1398666328209,0.888925
1398666388209,0.887432
1398666448209,0.887395
1398666508209,0.884810
1398666568209,0.889486
1398666628209,0.886948
1398666688209,0.890369
1398666748209,0.884507
1398666808209,0.882503
1398666868209,0.886232
1398666928209,0.891492
1398666988209,0.891685
1398667048209,0.881453
1398667108209,0.882549
1398667168209,0.881641
1398667228209,0.887129
1398667288209,0.875574
1398667348209,0.877093
1398667408209,0.888085
1398667468209,0.883202
1398667528209,0.875740
1398667588209,0.878879
1398667648209,0.884799
1398667708209,0.885745
1398667768209,0.879653
1398667828209,0.886512
1398667888209,0.888459
1398667948209,0.879588
1398668008209,0.887878
1398668068209,0.882187
1398668128209,0.877155
1398668188209,0.882717
1398668248209,0.881082
1398668308209,0.885722
1398668368209,0.875701
1398672028228,0.875496
1398672088228,0.881481
1398672148228,0.886250
1398672208228,0.876006
1398672268228,0.880443
1398672328228,0.880466
1398672388228,0.878337
1398672448228,0.873040
1398672508228,0.878432
1398672568228,0.879295
1398672628228,0.882482
1398672688228,0.883079
1398672748228,0.878208
1398672808228,0.876114
1398672868228,0.883669
1398672928228,0.883966
1398672988228,0.882020
1398673048228,0.880451
1398673108228,0.879835
1398673168228,0.877498
1398673228228,0.874930
1398673288228,0.877154
1398673348228,0.878042
1398673408228,0.882809
1398673468228,0.881032
1398673528228,0.873941
1398673588228,0.883394
1398673648228,0.880874
1398673708228,0.878302
1398673768228,0.884478
1398673828228,0.885884
1398673888228,0.883564
1398673948228,0.889718
1398674008228,0.883406
1398674068228,0.880871
1398674128228,0.881780
1398674188228,0.888618
1398674248228,0.881160
1398674308228,0.882916
1398674368228,0.891747
1398674428228,0.881940
1398674488228,0.891462
1398674548228,0.886902
1398674608228,0.877691
1398674668228,0.883861
1398674728228,0.884604
1398674788228,0.895059
1398674848228,0.883618
1398674908228,0.888786
1398674968228,0.890498
1398675028228,0.882962
1398675088228,0.891366
1398675148228,0.894102
1398675208228,0.885942
1398675268228,0.882886
1398675328228,0.892330
1398675388228,0.892304
1398675448228,0.886666
1398675508228,0.886192
1398675568228,0.889276
1398675628238,0.881224
1398675688238,0.889948
1398675748238,0.883533
1398675808238,0.890333
1398675868238,0.884257
1398675928238,0.883607
1398675988238,0.893195
1398676048238,0.887302
1398676108238,0.881478
1398676168238,0.879030
1398676228238,0.878550
1398676288238,0.883614
1398676348238,0.881366
1398676408238,0.882983
1398676468238,0.891690
1398676528238,0.884331
1398676588238,0.876555
1398676648238,0.882792
1398676708238,0.890398
1398676768238,0.888410
1398676828238,0.885942
1398676888238,0.889949
1398676948238,0.884745
1398677008238,0.887231
1398677068238,0.888693
1398677128238,0.882800
1398677188238,0.893886
1398677248238,0.889532
1398677308238,0.880311
1398677368238,0.878936
1398677428238,0.881581
1398677488238,0.891291
1398677548238,0.882837
1398677608238,0.881185
1398677668238,0.884492
1398677728238,0.877543
1398677788238,0.882777
1398677848238,0.882133
1398677908238,0.891142
1398677968238,0.885761
1398678028238,0.884946
1398678088238,0.883357
1398678148238,0.882904
1398678208238,0.886447
1398678268238,0.892028
1398678328238,0.888383
1398678388238,0.885855
1398678448238,0.891998
1398678508238,0.879526
1398678568238,0.885883
1398678628238,0.890527
1398678688238,0.885408
1398678748238,0.890655
1398678808238,0.883856
1398678868238,0.891604
1398678928238,0.885624
1398678988238,0.886978
1398679048238,0.886382
1398679108238,0.892743
1398679168238,0.881894
1398679228248,0.874840
1398679288248,0.885265
1398679348248,0.876322
1398679408248,0.885491
1398679468248,0.882172
1398679528248,0.887815
1398679588248,0.887809
1398679648248,0.884408
1398679708248,0.880554
1398679768248,0.895133
1398679828248,0.885608
1398679888248,0.889358
1398679948248,0.886064
1398680008248,0.885682
1398680068248,0.893675
1398680128248,0.889354
1398680188248,0.893666
1398680248248,0.892876
1398680308248,0.891914
1398680368248,0.891479
1398680428248,0.898802
1398680488248,0.895585
1398680548248,0.899727
1398680608248,0.902436
1398680668248,0.894491
1398680728248,0.898283
1398680788248,0.898529
1398680848248,0.896182
1398680908248,0.897066
1398680968248,0.894000
1398681028248,0.888331
1398681088248,0.885305
1398681148248,0.883573
1398681208248,0.889827
1398681268248,0.892002
1398681328248,0.893143
1398681388248,0.893734
1398681448248,0.889158
1398681508248,0.883438
1398681568248,0.887580
1398681628248,0.894730
1398681688248,0.889142
1398681748248,0.888629
1398681808248,0.893724
1398681868248,0.893438
1398681928248,0.887352
1398681988248,0.881425
1398682048248,0.892718
1398682108248,0.888836
1398682168248,0.897331
1398682228248,0.890179
1398682288248,0.897800
1398682348248,0.893028
1398682408248,0.892819
1398682468248,0.901821
1398682528248,0.890629
1398682588248,0.897571
1398682648248,0.898615
1398682708248,0.896197
1398682768248,0.889357
1398682828258,0.888379
1398682888258,0.886091
1398682948258,0.888886
1398683008258,0.889022
1398683068258,0.892209
1398683128258,0.896109
1398683188258,0.887583
1398683248258,0.888818
1398683308258,0.891197
1398683368258,0.886466
1398683428258,0.891462
1398683488258,0.887962
1398683548258,0.893137
1398683608258,0.891325
1398683668258,0.893392
1398683728258,0.888926
1398683788258,0.888072
1398683848258,0.895516
1398683908258,0.894768
1398683968258,0.883633
1398684028258,0.878982
1398684088258,0.892300
1398684148258,0.880365
1398684208258,0.888906
1398684268258,0.882643
1398684328258,0.885324
1398684388258,0.885329
1398684448258,0.885109
1398684508258,0.895885
1398684568258,0.892168
1398684628258,0.887286
1398684688258,0.892491
1398684748258,0.887791
1398684808258,0.895773
1398684868258,0.885620
1398684928258,0.890741
1398684988258,0.887695
1398685048258,0.879262
1398685108258,0.880607
1398685168258,0.887473
1398685228258,0.889522
1398685288258,0.885380
1398685348258,0.886064
1398685408258,0.880410
1398685468258,0.884902
1398685528258,0.879865
1398685588258,0.888724
1398685648258,0.884015
1398685708258,0.881930
1398685768258,0.890923
1398685828258,0.887119
1398685888258,0.884278
1398685948258,0.888551
1398686008258,0.885621
1398686068258,0.888820
1398686128258,0.885987
1398686188258,0.878603
1398686248258,0.886213
1398686308258,0.882527
1398686368258,0.878904
1398686428267,0.885771
1398686488267,0.886435
1398686548267,0.877007
1398686608267,0.884086
1398686668267,0.884829
1398686728267,0.871967
1398686788267,0.880776
1398686848267,0.882550
1398686908267,0.879962
1398686968267,0.877097
1398687028267,0.880236
1398687088267,0.885432
1398687148267,0.887686
1398687208267,0.877619
1398687268267,0.877625
1398687328267,0.877126
1398687388267,0.883002
1398687448267,0.876462
1398687508267,0.873940
1398687568267,0.879380
1398687628267,0.881970
1398687688267,0.883398
1398687748267,0.883380
1398687808267,0.887738
1398687868267,0.898628
1398687928267,0.899157
1398687988267,0.905683
1398688048267,0.902008
1398688108267,0.906253
1398688168267,0.900923
1398688228267,0.900238
1398688288267,0.899697
1398688348267,0.903472
1398688408267,0.898725
1398688468267,0.894223
1398688528267,0.899787
1398688588267,0.891492
1398688648267,0.903996
1398688708267,0.900383
1398688768267,0.893567
1398688828267,0.898110
1398688888267,0.897268
1398688948267,0.890704
1398689008267,0.890786
1398689068267,0.894948
1398689128267,0.896742
1398689188267,0.894740
1398689248267,0.890308
1398689308267,0.883491
1398689368267,0.891627
1398689428267,0.886916
1398689488267,0.890489
1398689548267,0.887382
1398689608267,0.888833
1398689668267,0.891075
1398689728267,0.887199
1398689788267,0.888150
1398689848267,0.892500
1398689908267,0.892706
1398689968267,0.885983
1398690028277,0.879649
1398690088277,0.891387
1398690148277,0.886253
1398690208277,0.889024
1398690268277,0.878468
1398690328277,0.898562
1398690388277,0.883451
1398690448277,0.891060
1398690508277,0.880903
1398690568277,0.886543
1398690628277,0.879943
1398690688277,0.887482
1398691228277,0.891240
1398691288277,0.879895
1398691348277,0.884218
1398691408277,0.886866
1398691468277,0.878533
1398691528277,0.891192
1398691588277,0.886513
1398691648277,0.889212
1398691708277,0.879102
1398691768277,0.880750
1398691828277,0.885860
1398691888277,0.894226
1398691948277,0.892898
1398692008277,0.879451
1398692068277,0.888872
1398692128277,0.886815
1398692188277,0.885205
1398692248277,0.878586
1398692308277,0.886485
1398692368277,0.880774
1398692428277,0.884135
1398692488277,0.884237
1398692548277,0.886245
1398692608277,0.887611
1398692668277,0.883660
1398692728277,0.890325
1398692788277,0.883328
1398692848277,0.885148
1398692908277,0.891896
1398692968277,0.889360
1398693028277,0.888622
1398693088277,0.882691
1398693148277,0.883053
1398693208277,0.889637
1398693268277,0.882692
1398693328277,0.882031
1398693388277,0.880978
1398693448277,0.887508
1398693508277,0.884748
1398693568277,0.883651
1398693628287,0.883278
1398693688287,0.882668
1398693748287,0.878929
1398693808287,0.880693
1398693868287,0.889126
1398693928287,0.883028
1398693988287,0.886387
1398694048287,0.887473
1398694108287,0.881859
1398694168287,0.885228
1398694228287,0.886341
1398694288287,0.884954
1398694348287,0.882707
1398694408287,0.888354
1398694468287,0.882821
1398694528287,0.882374
1398694588287,0.880341
1398694648287,0.885169
1398694708287,0.878900
1398694768287,0.892269
1398694828287,0.882679
1398694888287,0.885201
1398694948287,0.883719
1398695008287,0.884925
1398695068287,0.878952
1398695128287,0.889364
1398695188287,0.884050
1398695248287,0.878976
1398695308287,0.873271
1398695368287,0.894409
1398695428287,0.884799
1398695488287,0.890837
1398695548287,0.898499
1398695608287,0.900410
1398695668287,0.886141
1398695728287,0.898102
1398695788287,0.896240
1398695848287,0.895300
1398695908287,0.901213
1398695968287,0.885330
1398696028287,0.900375
1398696088287,0.896246
1398696148287,0.894038
1398696208287,0.909547
1398696268287,0.895354
1398696328287,0.897668
1398696388287,0.895822
1398696448287,0.895214
1398696508287,0.896264
1398696568287,0.900729
1398696628287,0.899279
1398696688287,0.897530
1398696748287,0.889982
1398696808287,0.900497
1398696868287,0.891534
1398696928287,0.902373
1398696988287,0.896403
1398697048287,0.895910
1398697108287,0.892466
1398697168287,0.904658
1398697228296,0.897577
1398697288296,0.897940
1398697348296,0.903784
1398697408296,0.901990
1398697468296,0.898605
1398697528296,0.898231
1398697588296,0.898340
1398697648296,0.896730
1398697708296,0.901971
1398697768296,0.902058
1398697828296,0.904802
1398697888296,0.901921
1398697948296,0.900219
1398698008296,0.891110
1398698068296,0.901480
1398698128296,0.910557
1398698188296,0.912871
1398698248296,0.926331
1398698308296,0.936935
1398698368296,0.946829
1398698428296,0.949845
1398698488296,0.955731
1398698548296,0.962497
1398698608296,0.975813
1398698668296,0.993071
1398698728296,1.00487
1398698788296,1.01264
1398698848296,1.01875
1398698908296,1.03486
1398698968296,1.02029
1398699028296,1.01918
1398699088296,1.01600
1398699148296,0.993779
1398699208296,0.976700
1398699268296,0.967741
1398699328296,0.961844
1398699388296,0.955221
1398699448296,0.951644
1398699508296,0.944288
1398699568296,0.946017
1398699628296,0.940097
1398699688296,0.931499
1398699748296,0.924664
1398699808296,0.923272
1398699868296,0.918365
1398699928296,0.929471
1398699988296,0.916928
1398700048296,0.916186
1398700108296,0.913708
1398700168296,0.909877
1398700228296,0.912616
1398700288296,0.913324
1398700348296,0.915022
1398700408296,0.905377
1398700468296,0.904657
1398700528296,0.910688
1398700588296,0.905782
1398700648296,0.901398
1398700708296,0.909109
1398700768296,0.907317
1398700828306,0.901158
1398700888306,0.903816
1398700948306,0.908223
1398701008306,0.903638
1398701068306,0.902536
1398701128306,0.900223
1398701188306,0.902385
1398701248306,0.895514
1398701308306,0.894013
1398701368306,0.902892
1398701428306,0.895173
1398701488306,0.898138
1398701548306,0.903381
1398701608306,0.899792
1398701668306,0.900266
1398701728306,0.903391
1398701788306,0.900659
1398701848306,0.909814
1398701908306,0.907616
1398701968306,0.908963
1398702028306,0.902242
1398702088306,0.907595
1398702148306,0.900140
1398702208306,0.894386
1398702268306,0.907173
1398702328306,0.905006
1398702388306,0.908170
1398702448306,0.904796
1398702508306,0.899801
1398702568306,0.899141
1398702628306,0.897311
1398702688306,0.899485
1398702748306,0.901595
1398702808306,0.900812
1398702868306,0.907699
1398702928306,0.906764
1398702988306,0.910933
1398703048306,0.914172
1398703108306,0.906053
1398703168306,0.909333
1398703228306,0.911595
1398703288306,0.912753
1398703348306,0.912987
1398703408306,0.904827
1398703468306,0.905502
1398703528306,0.902075
1398703588306,0.911204
1398703648306,0.906379
1398703708306,0.911256
1398703768306,0.904773
1398703828306,0.898390
1398703888306,0.900366
1398703948306,0.907181
1398704008306,0.899702
1398704068306,0.901552
1398704128306,0.900678
1398704188306,0.900585
1398704248306,0.895258
1398704308306,0.909422
1398704368306,0.909528
1398704428315,0.903752
1398704488315,0.908986
1398704548315,0.899261
1398704608315,0.907110
1398704668315,0.899835
1398704728315,0.907592
1398704788315,0.916492
1398704848315,0.899704
1398704908315,0.905020
1398704968315,0.916836
1398705028315,0.921851
1398705088315,0.913049
1398705148315,0.911989
1398705208315,0.914804
1398705268315,0.915712
1398705328315,0.914939
1398705388315,0.910016
1398705448315,0.919615
1398705508315,0.915353
1398705568315,0.915163
1398705628315,0.921264
1398705688315,0.923969
1398705748315,0.916285
1398705808315,0.909826
1398705868315,0.906563
1398705928315,0.907804
1398705988315,0.907393
1398706048315,0.904158
1398706108315,0.904810
1398706168315,0.909424
1398706228315,0.913713
1398706288315,0.908331
1398706348315,0.906640
1398706408315,0.908905
1398706468315,0.905221
1398706528315,0.909070
1398706588315,0.908000
1398706648315,0.892992
1398706708315,0.907161
1398706768315,0.903275
1398706828315,0.906581
1398706888315,0.902413
1398706948315,0.903004
1398707008315,0.904635
1398707068315,0.901754
1398707128315,0.896593
1398707188315,0.895089
1398707248315,0.895666
1398707308315,0.898352
1398707368315,0.902356
1398707428315,0.898354
1398707488315,0.899921
1398707548315,0.897390
1398707608315,0.900129
1398707668315,0.898852
1398707728315,0.897458
1398707788315,0.899459
1398707848315,0.895031
1398707908315,0.888659
1398707968315,0.898640
1398708028325,0.899831
1398708088325,0.909145
1398708148325,0.903447
1398708208325,0.900834
1398708268325,0.891918
1398708328325,0.898970
1398708388325,0.894285
1398708448325,0.898444
1398708508325,0.891087
1398708568325,0.897048
1398708628325,0.891239
1398708688325,0.886833
1398708748325,0.890208
1398708808325,0.895212
1398708868325,0.900667
1398708928325,0.891148
1398708988325,0.893023
1398709048325,0.887389
1398709108325,0.894893
1398709168325,0.891592
1398709228325,0.889771
1398709288325,0.883916
1398709348325,0.889523
1398709408325,0.889035
1398709468325,0.892269
1398709528325,0.892407
1398709588325,0.896864
1398709648325,0.901835
1398709708325,0.896806
1398709768325,0.889989
1398709828325,0.893291